Weather History for Jordan, MT

Change the Weather History Date:

Wednesday, April 9, 2014

  Actual Average Record
Temperature  
Mean Temperature 51 °F 42 °F  
Max Temperature 69 °F 56 °F 82 °F (1910)
Min Temperature 33 °F 29 °F 5 °F (2013)
Degree Days  
Heating Degree Days 14 23  
Month to date heating degree days 226 216  
Since 1 July heating degree days 7639 7318  
Cooling Degree Days 0 0  
Month to date cooling degree days 0 0  
Year to date cooling degree days 0 0  
Growing Degree Days 2 (Base 50)    
Moisture  
Dew Point 29 °F    
Average Humidity 50    
Maximum Humidity 76    
Minimum Humidity 24    
Precipitation  
Precipitation 0.00 in 0.02 in 0.77 in (2005)
Month to date precipitation 0.00 0.23  
Year to date precipitation 1.27 1.23  
Snow  
Snow 0.00 in - - ()
Month to date snowfall 0.0  
Since 1 July snowfall 0.0  
Snow Depth 0.00 in    
Sea Level Pressure  
Sea Level Pressure 29.77 in    
Wind  
Wind Speed 16 mph (WNW)    
Max Wind Speed 39 mph    
Max Gust Speed 46 mph    
T = Trace of Precipitation, MM = Missing Value Source: NWS Daily Summary

Daily Weather History Graph

Daily Weather History Graph

Search for Another Location

Airport:

Trip Planner

Search our weather history database for the weather conditions in past years. The results will help you decide how hot, cold, wet, or windy it might be!

Date:

Astronomy

Apr. 09, 2014 Rise Set
Actual Time 6:30 AM MDT 7:48 PM MDT
Civil Twilight 5:59 AM MDT 8:20 PM MDT
Nautical Twilight 5:21 AM MDT 8:58 PM MDT
Astronomical Twilight 4:40 AM MDT 9:39 PM MDT
Moon 2:19 PM MDT (4/9) 3:42 AM MDT (4/9)
Length of Visible Light 14h 21m
Length of Day
13h 17m
Waxing Gibbous, 72% of the Moon is Illuminated
Apr 9
Waxing Gibbous
Apr 15
Full
Apr 22
Last Quarter
Apr 29
New
May 6
First Quarter

Hourly Weather History & Observations

Time (MDT) Temp. Windchill Dew Point Humidity Pressure Visibility Wind Dir Wind Speed Gust Speed Precip Events Conditions
12:48 AM 46.0 °F 41.9 °F 32.0 °F 58% 29.76 in - WNW 8.1 mph - N/A   Unknown
1:48 AM 46.0 °F 41.4 °F 33.1 °F 61% 29.75 in - WNW 9.2 mph - N/A   Unknown
2:48 AM 45.0 °F 40.6 °F 33.1 °F 63% 29.72 in - WNW 8.1 mph - N/A   Unknown
3:48 AM 44.1 °F 41.5 °F 33.1 °F 65% 29.70 in - WNW 4.6 mph - N/A   Unknown
4:48 AM 37.9 °F - 30.9 °F 76% 29.69 in - Calm Calm - N/A   Unknown
5:48 AM 42.1 °F 40.2 °F 30.9 °F 65% 29.67 in - West 3.5 mph - N/A   Unknown
6:48 AM 48.0 °F - 33.1 °F 56% 29.65 in - WSW 6.9 mph - N/A   Unknown
7:48 AM 50.0 °F - 33.1 °F 52% 29.67 in - West 8.1 mph - N/A   Unknown
8:48 AM 60.1 °F - 33.1 °F 36% 29.64 in - West 18.4 mph 24.2 mph N/A   Unknown
9:48 AM 68.0 °F - 30.9 °F 25% 29.63 in - West 26.5 mph 36.8 mph N/A   Unknown
10:48 AM 61.0 °F - 36.0 °F 39% 29.68 in - NW 33.4 mph 46.0 mph N/A   Unknown
11:48 AM 59.0 °F - 37.0 °F 44% 29.74 in - NW 34.5 mph 44.9 mph N/A   Unknown
12:48 PM 57.0 °F - 34.0 °F 42% 29.78 in - NW 25.3 mph 34.5 mph N/A   Unknown
1:48 PM 53.1 °F - 33.1 °F 47% 29.81 in - NW 27.6 mph 34.5 mph N/A   Unknown
2:48 PM 55.9 °F - 30.9 °F 39% 29.80 in - NW 27.6 mph 36.8 mph N/A   Unknown
3:48 PM 55.9 °F - 28.9 °F 36% 29.80 in - NNW 32.2 mph 40.3 mph N/A   Unknown
4:48 PM 54.0 °F - 21.9 °F 29% 29.84 in - NW 24.2 mph 34.5 mph N/A   Unknown
5:48 PM 52.0 °F - 21.9 °F 31% 29.85 in - NW 23.0 mph 32.2 mph N/A   Unknown
6:48 PM 51.1 °F - 19.0 °F 28% 29.86 in - NNW 19.6 mph 31.1 mph N/A   Unknown
7:48 PM 48.0 °F - 21.0 °F 34% 29.88 in - NW 11.5 mph - N/A   Unknown
8:48 PM 43.0 °F 37.2 °F 23.0 °F 45% 29.88 in - NNW 10.4 mph - N/A   Unknown
9:48 PM 41.0 °F 36.4 °F 23.0 °F 49% 29.88 in - Variable 6.9 mph - N/A   Unknown
10:48 PM 35.1 °F 32.2 °F 25.0 °F 67% 29.91 in - West 3.5 mph - N/A   Unknown
11:48 PM 37.0 °F 31.0 °F 25.0 °F 62% 29.93 in - WNW 8.1 mph - N/A   Unknown